STARLINK-34823 (65355 NORAD) Tracking and Keplerian Element Data

This shows tracking and keplerian element data for the satellite.

Feedback or suggestion? Click here.




ElementValue
Catalog65355
NameSTARLINK-34823
Epoch Orbit1739
Epoch Day352.94195405
Epoch Year2025
RAAN183.1528
Inclination53.1575
Eccentricity0.0001389
Argument of Perigee68.5914
Mean Anonmoly291.5235
Mean Motion15.30197406
Decay Rate0.00027702
L11 65355U 25190E 25352.94195405 .00027702 00000+0 94403-3 0 9995
L22 65355 53.1575 183.1528 0001389 68.5914 291.5235 15.30197406 17397



Live tracking and technical data element details for STARLINK-34823 (NORAD 65355). STARLINK-34823 can be tracked NOW for your location showing map with azimuth and elevation plus other details from your city location.







IsCatalogInMostPopularTable: catalog: 65355, numindb: 3
Update: records affected: 1



GetName: 65355 STARLINK-34823

Hit Count: updated at: Mon, 09 Feb 2026 07:49:07 GMT